Location: Newark
(34.0000°S, 64.0000°W)
Time: 03:33:28
(UTC+00:00)

Starlink Launch 2 leader - Visible Passes

Search period start: 06 December 2019 00:00
Search period end: 16 December 2019 00:00
Orbit: 279 x 281 km, 53.0° (Epoch: 13 November)

Date Brightness Start Highest point End Pass type
(mag) Time Alt. Az. Time Alt. Az. Time Alt. Az.
06 Dec 2.7 00:02:51 10° SW 00:05:20 52° SE 00:07:04 17° ENE visible
07 Dec 2.8 00:04:46 10° SW 00:07:14 53° NW 00:09:08 15° NNE visible
08 Dec 4.5 00:07:06 10° WSW 00:09:05 20° NW 00:11:02 10° N visible
